Location: Lafig�re
(44.4503°N, 4.0357°E)
Time: 23:44:42
(UTC+00:00)

Cosmos 2150 Rocket - Pass Details

Date: 17 January 2021
Orbit: 748 x 808 km, 74.0° (Epoch: 06 March)

Event Time Altitude Azimuth Distance (km) Brightness Sun altitude
Exits shadow 05:02:58 - 353° (N) 3,252 7.1 -23.3°
Rises 05:02:58 0° 353° (N) 3,250 7.1 -23.3°
Reaches altitude 10° 05:06:54 10° 23° (NNE) 2,333 6.7 -22.6°
Maximum altitude 05:09:09 13° 48° (NE) 2,163 6.8 -22.2°
Drops below altitude 10° 05:11:23 10° 73° (ENE) 2,345 7.4 -21.8°
Sets 05:15:21 0° 102° (ESE) 3,284 8.8 -21.1°
